Wind_Speed
72 69 64 57 55 45 35 10 3 18 23 3 1 4 5 4 4 3 2 4 4 5 4 3 2 5 5 1 5 9 2 5 6 12 18 5 3 4 4 3 2 2 2 3
71 68 63 59 57 51 18 5 3 8 2 4 2 2 4 2 3 4 5 5 4 3 6 1 5 4 5 4 4 2 4 4 6 7 1 2 3 4 8 7 4 4 3 3
66 63 59 58 58 51 16 4 4 1 1 2 6 6 4 4 2 3 3 3 4 2 1 4 3 3 3 7 3 5 7 3 5 5 5 7 7 9 2 1 3 4 7 9
65 63 59 53 55 33 9 2 4 5 5 3 5 5 6 5 4 3 4 2 4 4 1 3 3 4 5 4 2 3 3 3 3 7 9 11 21 16 14 15 9 6 6 9
57 53 50 50 44 24 5 4 4 3 3 9 7 5 5 6 4 5 3 4 1 4 5 6 4 3 2 5 4 6 1 3 3 3 3 5 17 21 18 13 12 11 11 8
47 41 39 38 34 18 4 3 4 5 2 4 5 5 6 7 7 5 5 5 3 4 6 4 8 9 8 8 3 3 3 3 3 1 6 9 4 10 14 11 18 5 5 4
40 36 33 34 30 8 8 4 4 4 3 5 5 7 4 7 6 6 3 3 3 2 5 7 7 6 7 7 9 9 3 4 2 2 1 4 2 7 6 17 14 11 10 7
34 31 29 28 23 12 21 6 4 3 4 4 5 9 6 6 4 3 3 1 1 4 3 3 4 3 2 3 4 6 11 3 3 1 2 3 2 7 6 6 8 12 6 2
32 31 27 23 21 20 20 17 11 5 7 2 6 6 4 4 3 2 0 2 3 4 2 2 1 1 2 2 3 5 5 2 3 1 1 2 4 11 7 6 4 10 9 8
32 31 29 28 24 19 19 11 10 8 4 1 3 4 5 4 4 3 2 3 5 3 2 2 2 2 2 1 3 3 3 2 4 4 3 3 8 10 5 2 1 7 8 8
30 28 24 23 21 19 15 13 11 6 3 2 2 2 5 3 3 3 3 3 4 3 3 1 1 1 2 1 2 2 3 3 3 2 3 1 12 3 3 5 5 6 7 8
27 25 24 22 19 18 22 10 17 15 5 4 3 7 8 5 7 5 1 4 2 2 3 1 1 2 2 3 1 3 3 3 2 5 2 4 6 10 9 5 5 3 5 7
27 25 23 22 18 14 15 18 11 10 4 4 4 4 6 8 6 4 4 1 2 2 3 3 1 1 0 2 2 2 2 3 3 1 3 5 6 7 7 6 5 4 6 7
25 24 23 23 22 19 20 14 10 9 3 4 1 5 5 4 9 7 9 7 5 4 2 2 2 1 1 1 2 3 2 2 3 3 5 6 6 5 6 7 9 10 11 9
25 25 24 24 23 24 27 25 18 10 5 4 3 2 6 5 9 8 8 7 3 2 2 2 1 1 1 1 1 2 2 2 0 1 5 2 4 3 5 6 6 6 7 7
25 24 23 24 23 18 8 4 9 11 5 4 3 2 4 4 7 9 6 4 2 2 2 1 2 2 2 2 2 2 3 3 1 3 4 7 8 6 7 8 7 10 11 9
24 22 20 17 12 9 8 4 4 6 5 3 3 2 3 5 5 3 3 4 2 2 1 1 0 1 2 1 2 6 6 8 9 9 9 5 2 4 9 13 12 13 13 11
24 26 25 24 20 14 10 10 10 7 7 3 3 1 2 3 2 2 2 2 2 3 1 1 0 1 1 2 6 8 8 9 5 4 7 7 12 11 8 11 10 7 6 7
24 25 21 15 8 4 5 12 9 12 6 3 2 4 3 2 2 1 2 2 2 2 1 1 2 1 1 0 5 8 9 4 8 7 9 9 9 7 6 6 5 6 5 6
24 6 7 3 3 17 7 3 3 4 3 3 2 1 3 3 1 1 2 1 1 1 1 1 1 1 2 2 4 5 4 7 10 9 5 6 6 6 5 5 6 7 6 7
3 4 2 6 10 2 2 2 3 1 3 1 1 1 3 1 3 2 0 2 0 1 2 2 1 2 4 5 6 4 7 9 7 6 6 5 8 8 8 7 8 8 8 6
7 15 7 4 2 2 4 2 1 1 2 1 3 2 2 2 3 3 1 2 2 1 1 1 2 2 5 7 7 7 9 10 10 11 12 13 12 11 12 10 10 9 8 7
6 5 3 2 3 4 3 4 1 1 2 3 2 2 2 2 3 2 1 2 3 1 2 3 3 3 6 7 7 7 9 12 12 11 13 14 14 11 12 12 11 9 7 5
3 3 4 3 1 2 3 3 3 3 3 4 3 3 2 1 2 2 4 3 1 1 1 4 2 5 7 6 6 7 4 9 11 11 12 12 14 14 12 11 9 5 3 2
3 3 3 1 2 2 1 3 1 1 2 2 3 3 2 1 3 1 1 2 1 4 4 3 2 8 8 8 6 7 6 9 11 13 14 15 14 13 11 8 5 3 2 1
2 2 2 2 1 2 1 1 1 2 2 2 3 3 3 1 3 3 4 3 4 4 3 2 3 6 6 6 5 11 15 15 15 14 15 14 12 11 8 6 4 2 0 2
2 2 1 1 0 2 2 1 2 2 1 2 3 3 5 1 2 1 3 4 3 2 1 2 2 7 7 10 13 16 16 16 16 15 12 11 9 6 3 1 1 3 5 7
Wind_Direction
163 161 156 154 152 152 154 155 132 163 156 102 220 147 180 144 146 117 124 135 156 177 176 217 285 221 231 42 343 307 285 290 281 265 289 182 191 247 225 248 277 94 77 54
157 154 152 155 152 154 150 126 120 160 168 146 179 154 125 123 132 145 158 174 156 115 185 37 211 238 248 268 321 303 346 274 298 305 17 12 304 278 268 277 178 183 118 89
149 146 149 152 156 159 161 123 114 123 120 268 142 131 142 126 107 129 153 140 105 136 344 215 257 276 290 328 225 259 302 292 355 0 350 333 342 328 17 162 41 66 64 95
144 144 149 157 164 166 123 73 163 174 166 215 145 106 132 135 155 157 158 140 158 158 234 265 227 236 300 311 279 338 341 277 243 88 50 19 34 36 57 65 51 52 87 75
134 141 150 156 163 161 101 131 131 66 94 123 110 112 175 150 159 142 176 166 293 180 201 197 252 281 149 242 313 340 24 278 275 250 295 8 38 30 40 62 87 87 87 78
131 140 143 152 162 154 128 128 84 103 103 120 110 172 158 179 147 32 124 147 170 240 245 234 240 231 235 236 306 311 300 297 289 292 347 317 20 11 32 49 37 41 72 64
134 137 141 155 161 156 117 134 121 94 118 125 140 141 131 149 173 135 148 139 169 244 335 291 265 236 236 216 233 202 270 274 254 268 131 32 256 5 35 70 42 52 87 95
131 137 145 154 158 138 129 134 105 108 95 107 105 124 117 103 73 93 147 126 176 324 339 348 332 3 60 171 174 173 211 285 284 279 63 119 17 17 347 356 51 26 39 84
135 134 135 141 144 139 122 83 86 96 117 217 114 110 129 126 114 57 153 345 338 40 66 28 70 90 330 329 36 170 133 35 276 76 116 155 50 328 325 304 67 27 32 28
132 130 129 131 135 141 131 83 90 90 102 29 103 125 143 115 97 118 301 347 6 37 52 69 61 309 314 329 2 337 352 14 348 359 93 97 353 319 310 302 6 41 47 41
128 128 126 127 129 137 133 85 81 95 90 52 33 112 122 84 97 134 230 60 358 35 62 70 3 357 344 298 40 13 54 320 10 342 55 25 355 6 56 99 76 81 72 71
128 127 123 124 124 126 130 86 88 84 82 134 105 88 93 98 158 131 37 143 107 162 94 70 90 354 352 311 103 17 58 49 21 6 74 49 22 61 57 54 91 90 103 94
127 128 122 118 120 127 127 108 99 84 86 44 65 45 48 164 130 95 115 4 140 93 167 155 153 99 191 347 75 104 92 37 88 185 95 76 63 42 59 61 76 46 97 102
130 125 117 113 109 110 123 100 84 85 111 104 30 64 59 106 155 112 76 118 87 97 90 100 130 134 356 11 48 64 5 343 100 77 111 103 77 57 97 79 77 72 60 68
127 126 118 113 110 107 100 86 67 68 106 139 136 87 29 150 145 126 102 90 92 83 64 60 221 214 79 53 41 66 10 29 35 121 138 95 106 90 109 91 80 80 92 70
116 128 125 120 118 113 90 52 48 58 72 95 99 323 6 102 135 111 100 111 96 96 119 220 279 257 100 88 83 75 58 48 270 124 81 97 109 105 103 99 92 83 81 81
115 116 126 131 119 83 66 126 124 88 55 82 82 49 330 94 97 63 56 55 69 92 105 36 53 352 67 84 132 130 98 99 100 109 108 77 65 123 102 104 98 97 90 88
116 114 109 111 104 83 56 62 102 49 85 67 101 75 108 32 79 74 354 66 32 14 141 19 65 18 71 85 128 131 129 124 112 77 82 105 108 104 105 114 114 98 93 93
119 124 109 99 51 59 91 97 73 49 71 108 87 139 161 23 63 105 47 67 47 300 80 262 86 341 172 157 142 151 155 163 143 109 110 122 121 122 116 112 105 113 109 100
125 92 57 39 54 113 109 52 29 18 359 40 97 313 113 94 335 359 96 23 150 104 260 102 95 133 103 32 90 91 74 110 127 124 128 128 132 133 118 106 103 116 118 113
49 59 61 111 120 69 33 62 77 22 29 52 108 122 119 0 107 169 2 176 265 85 240 143 257 245 181 142 106 82 74 85 72 81 88 121 138 143 134 121 112 116 121 116
106 115 107 100 69 50 85 59 100 109 168 139 129 186 147 99 85 95 200 114 21 198 171 146 277 245 136 139 130 105 100 96 82 91 98 102 111 120 121 124 125 125 126 121
82 62 76 84 332 73 153 159 234 217 181 181 143 117 118 60 40 65 118 87 215 196 55 227 227 166 148 133 128 114 104 106 104 96 103 111 110 119 129 127 131 130 126 116
61 63 73 93 129 163 184 187 189 236 127 135 117 94 109 93 95 164 95 237 190 80 358 238 218 167 152 136 131 124 122 118 116 117 120 118 120 116 121 120 119 117 127 114
69 52 94 110 230 241 246 214 97 103 135 120 78 59 86 26 92 172 149 138 259 209 229 235 204 151 145 145 138 135 134 139 138 140 136 133 131 126 127 131 127 112 112 104
65 77 59 333 330 3 97 94 95 107 160 107 61 105 60 307 135 87 201 177 227 250 225 238 134 138 139 140 134 148 155 155 150 149 142 138 139 137 134 136 135 124 149 293
30 354 4 245 352 238 315 18 101 105 70 145 109 95 200 112 43 276 176 214 219 223 185 119 135 159 151 139 142 151 153 154 153 148 147 141 141 139 145 152 130 299 301 306
Height
639 657 673 693 698 723 745 754 764 763 768 782 791 783 777 771 775 775 780 788 791 802 814 809 819 810 789 777 783 783 773 766 762 736 717 722 726 725 722 724 721 719 726 756
634 650 668 689 696 713 733 749 758 765 766 781 780 772 770 771 775 777 782 786 790 801 814 820 812 808 783 782 781 784 777 763 753 734 726 725 726 719 714 717 719 722 726 754
634 650 671 682 693 713 724 736 757 768 767 769 763 766 771 775 774 777 777 782 790 797 802 800 809 806 781 778 775 773 773 765 760 763 756 756 741 721 713 715 723 738 748 763
635 649 671 683 700 711 712 729 744 746 760 766 762 761 770 777 780 776 778 783 786 791 808 798 802 796 788 777 772 770 773 767 767 764 765 760 755 741 732 732 740 746 768 773
639 659 674 686 700 707 714 725 732 742 749 755 759 760 772 774 776 775 778 781 783 787 791 790 791 787 789 788 777 774 772 768 765 754 754 754 765 761 755 752 756 766 772 782
652 669 678 689 699 706 713 720 723 730 752 755 759 766 771 772 772 778 776 781 784 785 784 782 782 780 780 779 782 785 779 768 762 750 748 747 759 775 775 772 769 766 768 786
664 674 683 694 702 706 708 715 721 733 755 752 755 761 764 770 771 775 778 780 783 780 779 777 772 777 776 778 777 780 778 769 761 747 754 761 780 778 775 780 786 784 788 794
672 681 690 697 703 706 709 717 718 731 755 752 756 762 768 773 773 775 777 779 781 780 779 778 770 768 763 767 762 771 773 770 757 747 757 772 772 786 788 783 791 795 789 792
682 687 692 698 704 709 713 716 720 727 744 757 755 765 768 776 779 781 779 781 780 780 783 782 781 779 769 767 765 763 768 770 766 758 752 769 789 790 786 784 785 799 800 802
685 691 696 701 706 711 714 721 724 729 749 759 759 766 771 775 781 786 787 785 784 782 794 791 787 790 775 780 772 773 771 772 774 764 765 781 797 791 785 775 802 801 803 806
690 695 701 704 709 713 715 726 727 731 751 761 760 762 769 775 780 789 787 791 790 794 799 791 795 792 784 786 777 774 783 780 782 774 776 778 797 788 786 800 804 805 805 807
694 700 704 709 713 718 720 727 732 735 744 760 762 763 765 767 771 781 787 788 787 792 801 801 800 797 794 783 773 779 784 791 790 796 800 805 804 802 806 806 804 808 808 811
701 707 711 714 717 721 722 729 735 739 752 762 763 766 768 770 772 774 783 787 786 791 794 802 805 796 793 787 785 784 790 790 797 801 807 808 810 811 811 811 812 812 812 814
708 712 715 718 722 725 727 731 739 742 751 766 771 768 770 772 774 775 776 780 785 789 792 797 806 800 792 791 788 791 796 795 798 806 811 814 816 816 817 817 818 819 820 821
713 717 720 723 727 729 732 737 743 745 749 766 771 771 773 774 775 777 779 782 787 791 794 802 800 796 794 793 795 796 799 800 798 802 805 811 817 819 820 821 823 824 825 828
718 722 726 728 732 734 736 746 750 749 750 761 777 777 776 776 778 779 781 785 789 791 794 797 797 793 794 800 795 803 803 803 803 805 811 814 818 820 822 824 827 828 829 831
723 727 730 734 737 738 743 752 753 753 753 762 779 781 778 777 779 782 786 787 791 792 796 796 795 793 793 798 799 802 805 807 808 810 812 818 819 823 826 827 830 831 833 835
728 732 735 739 742 746 751 753 754 756 757 762 780 781 778 778 782 787 790 791 793 795 797 797 795 795 795 802 800 802 805 808 810 812 811 816 821 826 829 831 833 835 836 838
734 737 740 743 747 753 757 758 759 758 762 773 783 780 781 780 787 790 792 793 803 799 803 797 798 802 800 802 800 802 804 807 812 815 817 821 824 828 830 832 835 836 839 840
739 741 743 756 756 758 760 763 764 765 768 770 782 783 778 784 791 797 796 799 802 800 796 796 795 801 805 806 807 809 809 808 812 818 823 825 827 829 832 834 836 837 839 841
741 747 755 757 760 761 763 773 775 775 777 776 779 780 779 784 791 793 796 803 802 798 794 795 806 796 801 808 809 811 811 812 815 816 817 820 823 828 832 835 837 838 839 841
745 748 755 760 762 765 767 769 770 771 774 779 782 783 782 783 785 794 795 798 802 802 794 793 813 806 804 807 811 814 815 816 818 819 821 824 826 829 832 835 837 839 841 842
749 752 759 762 769 770 766 779 776 777 779 781 782 783 783 786 786 794 789 800 811 796 803 805 802 803 805 808 812 816 818 819 821 824 826 828 830 832 834 836 839 841 842 843
757 763 768 769 767 765 778 777 777 775 775 776 780 782 775 793 791 811 807 804 791 795 813 795 804 801 805 808 812 816 821 822 824 827 829 831 833 835 837 839 840 842 843 844
763 765 768 768 771 769 768 770 769 770 774 775 778 784 787 800 798 787 789 788 802 806 801 802 802 799 804 809 813 817 821 825 827 829 831 833 835 836 839 841 842 843 844 844
766 767 773 770 767 766 764 766 767 770 773 771 776 787 799 799 798 796 792 782 805 799 804 799 800 802 806 810 814 818 821 824 827 829 831 834 836 838 840 841 842 843 843 843
769 775 773 771 771 773 767 766 768 771 770 784 784 791 791 791 796 794 791 783 799 797 795 798 800 801 807 811 815 819 822 825 827 830 832 834 836 838 839 840 841 841 841 841